Raton, NM

2:08 AM MDT on September 26, 2017 (GMT -0600)
Raton Municipal-Crews

Weather History for KRTN - November, 2013

Change the Weather History Date:

Saturday, November 2, 2013

  Actual Average (KTAD) Record (KTAD)
Temperature  
Mean Temperature 42 °F -  
Max Temperature 62 °F 55 °F 79 °F (1984)
Min Temperature 23 °F 27 °F -15 °F (1991)
Degree Days  
Heating Degree Days 22    
Moisture  
Dew Point 24 °F    
Average Humidity 56    
Maximum Humidity 85    
Minimum Humidity 24    
Precipitation  
Precipitation 0.00 in - - ()
Sea Level Pressure  
Sea Level Pressure 30.16 in    
Wind  
Wind Speed 4 mph (South)    
Max Wind Speed 14 mph    
Max Gust Speed -    
Visibility 10 miles    
Events      
Averages and records for this station are not official NWS values.
T = Trace of Precipitation, MM = Missing Value Source: NWS Daily Summary

Daily Weather History Graph

Daily Weather History Graph

Search for Another Location

Airport or City:

Trip Planner

Search our weather history database for the weather conditions in past years. The results will help you decide how hot, cold, wet, or windy it might be!

Date:

Astronomy

Nov. 02, 2013 Rise Set
Actual Time 7:22 AM MDT 5:59 PM MDT
Civil Twilight 6:56 AM MDT 6:26 PM MDT
Nautical Twilight 6:25 AM MDT 6:57 PM MDT
Astronomical Twilight 5:55 AM MDT 7:27 PM MDT
Moon 6:24 AM MDT (11/2) 5:32 PM MDT (11/2)
Length of Visible Light 11h 30m
Length of Day
10h 36m
Waning Crescent, 1% of the Moon is Illuminated
Nov 2
Waning Crescent
Nov 3
New
Nov 9
First Quarter
Nov 17
Full
Nov 25
Last Quarter

Hourly Weather History & Observations

Time (MDT) Temp. Windchill Dew Point Humidity Pressure Visibility Wind Dir Wind Speed Gust Speed Precip Events Conditions
12:53 AM 30.9 °F - 23.0 °F 72% 30.25 in 10.0 mi Calm Calm - N/A   Clear
1:53 AM 28.0 °F - 21.9 °F 78% 30.25 in 10.0 mi Calm Calm - N/A   Clear
2:53 AM 28.0 °F 24.2 °F 23.0 °F 81% 30.25 in 10.0 mi NE 3.5 mph - N/A   Clear
3:53 AM 25.0 °F 17.1 °F 21.0 °F 85% 30.25 in 10.0 mi NE 6.9 mph - N/A   Clear
4:53 AM 26.1 °F 19.4 °F 21.0 °F 81% 30.25 in 10.0 mi NNE 5.8 mph - N/A   Clear
5:53 AM 24.1 °F 16.0 °F 19.9 °F 84% 30.28 in 10.0 mi NE 6.9 mph - N/A   Clear
6:53 AM 23.0 °F 17.0 °F 19.0 °F 85% 30.32 in 10.0 mi ENE 4.6 mph - N/A   Clear
7:53 AM 28.0 °F 24.2 °F 23.0 °F 81% 30.31 in 10.0 mi NNE 3.5 mph - N/A   Clear
8:53 AM 36.0 °F 33.3 °F 27.0 °F 70% 30.31 in 10.0 mi NE 3.5 mph - N/A   Clear
9:53 AM 39.9 °F - 27.0 °F 60% 30.30 in 10.0 mi Calm Calm - N/A   Clear
10:53 AM 44.1 °F 41.5 °F 26.1 °F 49% 30.26 in 10.0 mi SE 4.6 mph - N/A   Clear
11:53 AM 48.0 °F - 26.1 °F 42% 30.23 in 10.0 mi South 4.6 mph - N/A   Clear
12:53 PM 50.0 °F - 24.1 °F 36% 30.18 in 10.0 mi South 8.1 mph - N/A   Clear
1:53 PM 54.0 °F - 25.0 °F 33% 30.13 in 10.0 mi South 8.1 mph - N/A   Clear
2:53 PM 55.9 °F - 26.1 °F 32% 30.08 in 10.0 mi Variable 4.6 mph - N/A   Clear
3:53 PM 59.0 °F - 25.0 °F 27% 30.05 in 10.0 mi WSW 8.1 mph - N/A   Clear
4:53 PM 62.1 °F - 25.0 °F 24% 30.01 in 10.0 mi South 13.8 mph - N/A   Clear
5:53 PM 55.9 °F - 25.0 °F 30% 30.02 in 10.0 mi South 9.2 mph - N/A   Clear
6:53 PM 52.0 °F - 25.0 °F 35% 30.05 in 10.0 mi SW 9.2 mph - N/A   Clear
7:53 PM 46.9 °F - 25.0 °F 42% 30.05 in 10.0 mi West 5.8 mph - N/A   Clear
8:53 PM 44.1 °F 39.5 °F 25.0 °F 47% 30.02 in 10.0 mi WSW 8.1 mph - N/A   Clear
9:53 PM 39.9 °F 35.8 °F 24.1 °F 53% 30.01 in 10.0 mi West 5.8 mph - N/A   Clear
10:53 PM 37.9 °F 33.5 °F 24.1 °F 57% 29.99 in 10.0 mi NW 5.8 mph - N/A   Clear
11:53 PM 39.0 °F 34.8 °F 24.1 °F 55% 29.94 in 10.0 mi NNW 5.8 mph - N/A   Clear